Weather History for Ypsilanti, MI

Change the Weather History Date:

Thursday, February 13, 2014

  Actual Average Record
Temperature  
Mean Temperature 18 °F -  
Max Temperature 32 °F 33 °F 63 °F (1990)
Min Temperature 3 °F 19 °F 0 °F (1970)
Degree Days  
Heating Degree Days 48    
Moisture  
Dew Point 8 °F    
Average Humidity 61    
Maximum Humidity 80    
Minimum Humidity 41    
Precipitation  
Precipitation 0.00 in - - ()
Sea Level Pressure  
Sea Level Pressure 29.85 in    
Wind  
Wind Speed 5 mph (SE)    
Max Wind Speed 12 mph    
Max Gust Speed -    
Visibility 8 miles    
Events Snow    
Averages and records for this station are not official NWS values.
T = Trace of Precipitation, MM = Missing Value Source: NWS Daily Summary

Daily Weather History Graph

Daily Weather History Graph

Search for Another Location

Airport:

Trip Planner

Search our weather history database for the weather conditions in past years. The results will help you decide how hot, cold, wet, or windy it might be!

Date:

Astronomy

Feb. 13, 2014 Rise Set
Actual Time 7:33 AM EST 6:04 PM EST
Civil Twilight 7:04 AM EST 6:33 PM EST
Nautical Twilight 6:31 AM EST 7:05 PM EST
Astronomical Twilight 5:58 AM EST 7:38 PM EST
Moon 5:11 PM EST (2/13) 6:25 AM EST (2/13)
Length of Visible Light 11h 28m
Length of Day
10h 31m
Waxing Gibbous, 98% of the Moon is Illuminated
Feb 13
Waxing Gibbous
Feb 14
Full
Feb 22
Last Quarter
Mar 1
New
Mar 8
First Quarter

Hourly Weather History & Observations

Time (EST) Temp. Windchill Dew Point Humidity Pressure Visibility Wind Dir Wind Speed Gust Speed Precip Events Conditions
12:53 AM 17.1 °F 8.7 °F 7.0 °F 65% 30.07 in 9.0 mi SSE 5.8 mph - N/A   Overcast
1:53 AM 17.1 °F - 8.1 °F 68% 30.06 in 9.0 mi Calm Calm - N/A   Overcast
2:53 AM 12.9 °F 3.8 °F 5.0 °F 71% 30.03 in 8.0 mi NNW 5.8 mph - N/A   Partly Cloudy
3:53 AM 14.0 °F 6.5 °F 6.1 °F 71% 30.01 in 9.0 mi North 4.6 mph - N/A   Mostly Cloudy
4:53 AM 10.9 °F 4.7 °F 3.9 °F 73% 30.04 in 7.0 mi SE 3.5 mph - N/A   Mostly Cloudy
5:53 AM 9.0 °F 2.4 °F 1.9 °F 73% 30.04 in 7.0 mi SSE 3.5 mph - N/A   Clear
6:53 AM 3.9 °F - -0.9 °F 80% 30.02 in 6.0 mi Calm Calm - N/A   Haze
7:53 AM 6.1 °F - -0.9 °F 73% 29.99 in 4.0 mi Calm Calm - N/A   Haze
8:53 AM 9.0 °F 2.4 °F 3.0 °F 77% 29.99 in 4.0 mi North 3.5 mph - N/A   Haze
9:53 AM 17.1 °F 10.0 °F 8.1 °F 68% 29.96 in 5.0 mi NNE 4.6 mph - N/A   Haze
10:53 AM 24.1 °F - 10.0 °F 55% 29.94 in 8.0 mi Calm Calm - N/A   Clear
11:53 AM 27.0 °F 20.5 °F 10.0 °F 49% 29.90 in 10.0 mi ESE 5.8 mph - N/A   Clear
12:53 PM 30.0 °F - 9.0 °F 41% 29.85 in 10.0 mi Calm Calm - N/A   Clear
1:53 PM 30.9 °F 23.5 °F 10.0 °F 42% 29.80 in 10.0 mi East 8.1 mph - N/A   Clear
2:53 PM 32.0 °F 23.0 °F 12.0 °F 44% 29.77 in 10.0 mi SSE 11.5 mph - 0.00 in   Clear
3:53 PM 28.9 °F 19.2 °F 9.0 °F 43% 29.76 in 10.0 mi SSE 11.5 mph - N/A   Mostly Cloudy
4:53 PM 27.0 °F 18.0 °F 9.0 °F 47% 29.76 in 10.0 mi South 9.2 mph - N/A   Clear
5:53 PM 25.0 °F 14.8 °F 7.0 °F 46% 29.73 in 10.0 mi SSE 10.4 mph - N/A   Scattered Clouds
6:53 PM 24.1 °F 14.4 °F 9.0 °F 53% 29.70 in 10.0 mi SE 9.2 mph - N/A   Mostly Cloudy
7:53 PM 24.1 °F 16.0 °F 10.0 °F 55% 29.68 in 10.0 mi SSE 6.9 mph - N/A   Overcast
8:29 PM 23.0 °F 17.0 °F 10.9 °F 60% 29.64 in 4.0 mi SSE 4.6 mph - 0.00 in Snow Light Snow
8:53 PM 21.9 °F 13.4 °F 12.0 °F 66% 29.66 in 10.0 mi SE 6.9 mph - 0.00 in   Overcast
9:53 PM 21.9 °F 12.5 °F 12.9 °F 68% 29.62 in 10.0 mi SE 8.1 mph - N/A   Overcast
10:53 PM 21.9 °F 13.4 °F 12.9 °F 68% 29.57 in 10.0 mi SE 6.9 mph - N/A   Overcast
11:53 PM 21.9 °F 14.5 °F 12.9 °F 68% 29.54 in 10.0 mi SE 5.8 mph - N/A   Overcast